Вернуться в каталог

STARLINK-4624

АктивенСвязьSSO
NORAD 53684·PAYLOAD·🇺🇸 United States

Запущен Aug 31, 2022 с Vandenberg Space Force Base

Loading…

Ближайшие Пролёты (ближайшие 24 часа)

TLE

СвежийSource: CelesTrak SupGP

Эпоха: Sep 14, 2026, 21:03 UTC

1 53684C 22105AN  26257.87756944 -.00028258  00000+0 -19624-2 0  2575
2 53684  97.2819 131.9654 0002288  81.1714 187.7776 15.05662972    12

Отслеживайте STARLINK-4624 в реальном времени с AllMySat

Download on the App Store